Liberal, Kansas, United States (67901)
Lat: 37.04N, Lon: 100.92W
Wx Zone: KSZ086
Local Info
Past Weather Observations for Saturday, July 23, 2016

NOTE: This archive is for the closest National Weather Service station to Liberal. Information may differ from the station used for current weather conditions.

Click here for Long-term Archive

Time Weather Temperature Dewpoint Humidity Pressure Winds Precip Visibility
23:55
Partly Cloudy
84°F / 29°C 55°F / 13°C 37% 29.98 in
(1015 mb)
S 10.4 mph
(S 17 kph)
- 10SM
23:35
Clear
84°F / 29°C 54°F / 12°C 35% 29.98 in
(1015 mb)
S 10.4 mph
(S 17 kph)
- 10SM
23:15
Clear
84°F / 29°C 54°F / 12°C 35% 29.95 in
(1014 mb)
S 13.8 mph
(S 22 kph)
- 10SM
22:55
Clear
84°F / 29°C 54°F / 12°C 35% 29.95 in
(1014 mb)
S 10.4 mph
(S 17 kph)
- 10SM
22:35
Clear
84°F / 29°C 54°F / 12°C 35% 29.95 in
(1014 mb)
S 11.5 mph
(S 19 kph)
- 10SM
22:15
Clear
84°F / 29°C 54°F / 12°C 35% 29.92 in
(1013 mb)
S 11.5 mph
(S 19 kph)
- 10SM
21:55
Clear
84°F / 29°C 54°F / 12°C 35% 29.92 in
(1013 mb)
S 12.7 mph
(S 20 kph)
- 10SM
21:35
Clear
86°F / 30°C 54°F / 12°C 33% 29.92 in
(1013 mb)
S 12.7 mph
(S 20 kph)
- 10SM
21:15
Clear
86°F / 30°C 54°F / 12°C 33% 29.92 in
(1013 mb)
SSE 10.4 mph
(SSE 17 kph)
- 10SM
20:55
Clear
88°F / 31°C 52°F / 11°C 29% 29.89 in
(1012 mb)
SSE 10.4 mph
(SSE 17 kph)
- 10SM
20:35
Clear
88°F / 31°C 50°F / 10°C 27% 29.89 in
(1012 mb)
S 10.4 mph
(S 17 kph)
- 10SM
20:15
Clear
88°F / 31°C 50°F / 10°C 27% 29.89 in
(1012 mb)
S 10.4 mph
(S 17 kph)
- 10SM
19:55
Clear
91°F / 33°C 50°F / 10°C 24% 29.89 in
(1012 mb)
S 10.4 mph
(S 17 kph)
- 10SM
19:35
Clear
91°F / 33°C 50°F / 10°C 24% 29.89 in
(1012 mb)
S 11.5 mph
(S 19 kph)
- 10SM
19:15
Clear
93°F / 34°C 50°F / 10°C 23% 29.89 in
(1012 mb)
S 11.5 mph
(S 19 kph)
- 10SM
18:55
Clear
95°F / 35°C 50°F / 10°C 22% 29.86 in
(1011 mb)
S 10.4 mph
(S 17 kph)
- 10SM
18:35
Clear
97°F / 36°C 50°F / 10°C 20% 29.86 in
(1011 mb)
S 16.1 mph
(S 26 kph)
- 10SM
18:15
Clear
99°F / 37°C 52°F / 11°C 21% 29.86 in
(1011 mb)
S 12.7 mph
(S 20 kph)
- 10SM
17:55
Clear
100°F / 38°C 54°F / 12°C 21% 29.86 in
(1011 mb)
SSE 17.3 mph
(SSE 28 kph)
- 10SM
17:35
Clear
100°F / 38°C 54°F / 12°C 21% 29.86 in
(1011 mb)
SSE 16.1 mph
(SSE 26 kph)
- 10SM
17:15
Clear
102°F / 39°C 54°F / 12°C 20% 29.89 in
(1012 mb)
S 17.3 mph
(S 28 kph)
- 10SM
16:55
Clear
102°F / 39°C 55°F / 13°C 21% 29.89 in
(1012 mb)
SSE 20.7 mph
(SSE 33 kph)
- 10SM
16:35
Clear
102°F / 39°C 55°F / 13°C 21% 29.89 in
(1012 mb)
S 19.6 mph
(S 32 kph)
- 10SM
16:15
Clear
102°F / 39°C 55°F / 13°C 21% 29.89 in
(1012 mb)
S 15 mph
(S 24 kph)
- 10SM
15:55
Clear
100°F / 38°C 54°F / 12°C 21% 29.89 in
(1012 mb)
S 18.4 mph
(S 30 kph)
- 10SM
15:35
Clear
102°F / 39°C 55°F / 13°C 21% 29.89 in
(1012 mb)
SSE 19.6 mph
(SSE 32 kph)
- 10SM
15:15
Clear
102°F / 39°C 55°F / 13°C 21% 29.89 in
(1012 mb)
S 20.7 mph
(S 33 kph)
- 10SM
14:55
Clear
102°F / 39°C 55°F / 13°C 21% 29.92 in
(1013 mb)
S 21.9 mph
(S 35 kph)
- 10SM
14:35
Clear
102°F / 39°C 55°F / 13°C 21% 29.92 in
(1013 mb)
SSE 19.6 mph
(SSE 32 kph)
- 10SM
14:15
Clear
100°F / 38°C 55°F / 13°C 22% 29.92 in
(1013 mb)
S 19.6 mph
(S 32 kph)
- 10SM
13:55
Clear
100°F / 38°C 55°F / 13°C 22% 29.92 in
(1013 mb)
SSE 18.4 mph
(SSE 30 kph)
- 10SM
13:35
Clear
100°F / 38°C 55°F / 13°C 22% 29.95 in
(1014 mb)
SSE 19.6 mph
(SSE 32 kph)
- 10SM
13:15
Clear
100°F / 38°C 57°F / 14°C 24% 29.95 in
(1014 mb)
S 24.2 mph
(S 39 kph)
- 10SM
12:55
Clear
100°F / 38°C 57°F / 14°C 24% 29.95 in
(1014 mb)
SSE 23 mph
(SSE 37 kph)
- 10SM
12:35
Clear
100°F / 38°C 57°F / 14°C 24% 29.95 in
(1014 mb)
SSE 24.2 mph
(SSE 39 kph)
- 10SM
12:15
Clear
100°F / 38°C 57°F / 14°C 24% 29.95 in
(1014 mb)
SSE 21.9 mph
(SSE 35 kph)
- 10SM
11:55
Clear
99°F / 37°C 57°F / 14°C 25% 29.95 in
(1014 mb)
SSE 20.7 mph
(SSE 33 kph)
- 10SM
11:35
Clear
99°F / 37°C 59°F / 15°C 27% 29.98 in
(1015 mb)
SSE 21.9 mph
(SSE 35 kph)
- 10SM
11:15
Clear
99°F / 37°C 57°F / 14°C 25% 29.98 in
(1015 mb)
SSE 20.7 mph
(SSE 33 kph)
- 10SM
10:55
Clear
97°F / 36°C 57°F / 14°C 27% 29.98 in
(1015 mb)
SW 21.9 mph
(SW 35 kph)
- 10SM
10:35
Clear
97°F / 36°C 57°F / 14°C 27% 29.98 in
(1015 mb)
SW 24.2 mph
(SW 39 kph)
- 10SM
10:15
Clear
95°F / 35°C 57°F / 14°C 28% 29.98 in
(1015 mb)
SW 21.9 mph
(SW 35 kph)
- 10SM
09:55
Clear
93°F / 34°C 59°F / 15°C 32% 29.98 in
(1015 mb)
SW 16.1 mph
(SW 26 kph)
- 10SM
09:35
Clear
91°F / 33°C 59°F / 15°C 34% 29.98 in
(1015 mb)
SSE 18.4 mph
(SSE 30 kph)
- 10SM
09:15
Clear
90°F / 32°C 57°F / 14°C 33% 29.98 in
(1015 mb)
SW 18.4 mph
(SW 30 kph)
- 10SM
08:55
Clear
88°F / 31°C 59°F / 15°C 38% 29.98 in
(1015 mb)
SW 17.3 mph
(SW 28 kph)
- 10SM
08:35
Clear
84°F / 29°C 57°F / 14°C 40% 30.01 in
(1016 mb)
SSE 17.3 mph
(SSE 28 kph)
- 10SM
08:15
Clear
82°F / 28°C 57°F / 14°C 42% 30.01 in
(1016 mb)
SSE 17.3 mph
(SSE 28 kph)
- 10SM
07:55
Clear
81°F / 27°C 57°F / 14°C 45% 30.01 in
(1016 mb)
SSE 13.8 mph
(SSE 22 kph)
- 10SM
07:35
Clear
79°F / 26°C 57°F / 14°C 48% 29.98 in
(1015 mb)
S 16.1 mph
(S 26 kph)
- 10SM
07:15
Clear
73°F / 23°C 57°F / 14°C 57% 30.01 in
(1016 mb)
S 15 mph
(S 24 kph)
- 10SM
06:55
Clear
72°F / 22°C 55°F / 13°C 57% 30.01 in
(1016 mb)
S 11.5 mph
(S 19 kph)
- 10SM
06:35
Clear
72°F / 22°C 55°F / 13°C 57% 30.01 in
(1016 mb)
S 10.4 mph
(S 17 kph)
- 10SM
06:15
Clear
70°F / 21°C 55°F / 13°C 60% 30.01 in
(1016 mb)
S 9.2 mph
(S 15 kph)
- 10SM
05:55
Clear
72°F / 22°C 55°F / 13°C 57% 30.01 in
(1016 mb)
S 9.2 mph
(S 15 kph)
- 10SM
05:35
Clear
72°F / 22°C 55°F / 13°C 57% 29.98 in
(1015 mb)
S 10.4 mph
(S 17 kph)
- 10SM
05:15
Clear
73°F / 23°C 55°F / 13°C 53% 29.98 in
(1015 mb)
S 11.5 mph
(S 19 kph)
- 10SM
04:55
Clear
72°F / 22°C 57°F / 14°C 61% 29.98 in
(1015 mb)
S 11.5 mph
(S 19 kph)
- 10SM
04:35
Clear
72°F / 22°C 55°F / 13°C 57% 30.01 in
(1016 mb)
SSE 10.4 mph
(SSE 17 kph)
- 10SM
04:15
Clear
72°F / 22°C 57°F / 14°C 61% 30.01 in
(1016 mb)
S 8.1 mph
(S 13 kph)
- 10SM
03:55
Clear
72°F / 22°C 55°F / 13°C 57% 30.01 in
(1016 mb)
S 9.2 mph
(S 15 kph)
- 10SM
03:35
Clear
72°F / 22°C 55°F / 13°C 57% 30.01 in
(1016 mb)
SSE 8.1 mph
(SSE 13 kph)
- 10SM
03:15
Clear
72°F / 22°C 55°F / 13°C 57% 30.01 in
(1016 mb)
S 9.2 mph
(S 15 kph)
- 10SM
02:55
Clear
73°F / 23°C 55°F / 13°C 53% 30.01 in
(1016 mb)
S 6.9 mph
(S 11 kph)
- 10SM
02:35
Clear
73°F / 23°C 55°F / 13°C 53% 30.01 in
(1016 mb)
SW 8.1 mph
(SW 13 kph)
- 10SM
02:15
Clear
75°F / 24°C 55°F / 13°C 50% 30.01 in
(1016 mb)
S 9.2 mph
(S 15 kph)
- 10SM
01:55
Clear
73°F / 23°C 55°F / 13°C 53% 30.01 in
(1016 mb)
S 11.5 mph
(S 19 kph)
- 10SM
01:35
Clear
75°F / 24°C 55°F / 13°C 50% 30.01 in
(1016 mb)
S 10.4 mph
(S 17 kph)
- 10SM
01:15
Clear
75°F / 24°C 55°F / 13°C 50% 30.01 in
(1016 mb)
SSE 10.4 mph
(SSE 17 kph)
- 10SM
00:55
Clear
77°F / 25°C 55°F / 13°C 47% 30.01 in
(1016 mb)
S 10.4 mph
(S 17 kph)
- 10SM
00:35
Clear
79°F / 26°C 55°F / 13°C 45% 30.01 in
(1016 mb)
S 10.4 mph
(S 17 kph)
- 10SM
00:15
Clear
81°F / 27°C 55°F / 13°C 42% 30.01 in
(1016 mb)
S 10.4 mph
(S 17 kph)
- 10SM
Time Weather Temperature Dewpoint Humidity Pressure Winds Precip Visibility


Weather for websites

WeatherForYou.com, LLC is not responsible for any damages or problems caused by this service. Current weather conditions are obtained from the closest station including government and personal stations which may have varying degrees of accuracy. Weather forecasts are derived from the NOAA NDFD. Like all things, this site belongs to Jesus Christ... He just trusts us to maintain it. If you have any questions or comments email webmaster@weatherforyou.com

Copyright © 2016, WeatherForYou.com LLC. All rights reserved.